Flag for United Arab Emirates Weather past 2 weeks in Sharjah, Sharjah, United Arab Emirates

Now
100 °F

Passing clouds.


Feels Like: 110 °F
Forecast: 89 / 99 °F
Wind: 12 mph from Northwest

Location: Sharjah International Airport

Current Time: Sep 19, 2014 at 12:18:21 PM

Latest Report: Sep 19, 2014 at 12:00 PM


Visibility: N/A

Pressure: 29.77 "Hg

Humidity: 40%

Dew point: 72 °F

Location of SharjahLocation

Historic Weather in Sharjah — Graph

°F

Sharjah temperature yesterday

Maximum temperature yesterday: 100 °F (at 2:00 PM)
Minimum temperature yesterday: 82 °F (at 3:00 AM)
Average temperature yesterday: 91 °F

Past Weeks' High & Low Weather Summary

 TemperatureHumidityPressure
High111 °F (Sep 4, 1:00 PM)89% (Sep 7, 4:00 AM)29.80 "Hg (Sep 7, 4:00 AM)
Low81 °F (Sep 6, 7:00 AM)10% (Sep 4, 11:00 AM)29.47 "Hg (Sep 5, 2:00 PM)
Average93 °F58%29.61 "Hg
* Reported Sep 4 11:00 AM — Sep 19 11:00 AM, Sharjah, Weather by CustomWeather, © 2014

Note: Actual official high and low records may vary slightly from our data, if they occured in-between our weather recording intervals... More about our weather records

Advertising

Sharjah weather history for previous 24 hours

 ConditionsComfort  
Time TempWeatherWind HumidityBarometerVisibility
11:00 AM
Sep 19
99 °FPassing clouds.5 mph44%29.80 "HgN/A
10:00 AM97 °FSunny.No wind53%29.80 "Hg10 mi
9:00 AM90 °FSunny.No wind71%29.80 "Hg5 mi
8:00 AM86 °FClear.3 mph79%29.80 "Hg4 mi
7:00 AM82 °FClear.6 mph74%29.77 "Hg4 mi
6:00 AM82 °FClear.5 mph79%29.74 "Hg5 mi
5:00 AM84 °FClear.1 mph74%29.74 "Hg5 mi
4:00 AM84 °FClear.5 mph70%29.71 "Hg5 mi
3:00 AM84 °FClear.6 mph66%29.71 "Hg10 mi
2:00 AM84 °FClear.5 mph70%29.71 "Hg10 mi
1:00 AM90 °FClear.3 mph63%29.74 "Hg10 mi
12:00 AM90 °FClear.No wind59%29.74 "Hg10 mi
11:00 PM
Sep 18
91 °FPassing clouds.5 mph56%29.74 "HgN/A
10:00 PM91 °FClear.2 mph59%29.74 "Hg10 mi
9:00 PM91 °FClear.No wind63%29.74 "Hg10 mi
8:00 PM91 °FClear.3 mph67%29.71 "Hg10 mi
7:00 PM93 °FClear.5 mph59%29.71 "Hg10 mi
6:00 PM95 °FClear.7 mph56%29.68 "Hg5 mi
5:00 PM97 °FClear.10 mph53%29.68 "Hg5 mi
4:00 PM97 °FClear.12 mph47%29.68 "Hg5 mi
3:00 PM99 °FClear.12 mph50%29.68 "Hg5 mi
2:00 PM100 °FClear.12 mph42%29.68 "Hg5 mi
1:00 PM99 °FPassing clouds.9 mph44%29.71 "HgN/A
12:00 PM99 °FPassing clouds.9 mph47%29.71 "HgN/A
Weather by CustomWeather, © 2014

See weather overviewHow to use our weather pages